Location: Contre
(49.7477°N, 2.0963°E)
Time: 18:40:30
(UTC+00:00)

Cosmos 407 Rocket - Pass Details

Date: 03 February 2023
Orbit: 742 x 785 km, 74.0° (Epoch: 25 March)

Event Time Altitude Azimuth Distance (km) Brightness Sun altitude
Rises 17:13:31 0° 189° (S) 3,189 7.2 -4.4°
Reaches altitude 10° 17:15:54 10° 186° (S) 2,264 6.3 -4.8°
Maximum altitude 17:20:55 58° 108° (ESE) 870 3.6 -5.5°
Drops below altitude 10° 17:25:56 10° 30° (NNE) 2,267 5.5 -6.3°
Sets 17:28:19 0° 27° (NNE) 3,194 6.3 -6.7°
